CST,Max TemperatureF,Mean TemperatureF,Min TemperatureF,Max Dew PointF,MeanDew PointF,Min DewpointF,Max Humidity, Mean Humidity, Min Humidity, Max Sea Level PressureIn, Mean Sea Level PressureIn, Min Sea Level PressureIn, Max VisibilityMiles, Mean VisibilityMiles, Min VisibilityMiles, Max Wind SpeedMPH, Mean Wind SpeedMPH, Max Gust SpeedMPH,PrecipitationIn, CloudCover, Events, WindDirDegrees
2013-1-1,23,16,8,23,16,7,100,90,67,30.33,30.26,30.19,10,10,10,15,10,,0.00,5,,7
2013-1-2,33,21,9,25,17,8,92,82,63,30.28,30.24,30.17,10,10,10,16,7,,0.00,1,,219
2013-1-3,37,27,17,29,24,17,99,85,61,30.44,30.38,30.27,10,10,8,10,5,,0.00,4,,281
2013-1-4,41,28,16,28,24,16,99,85,57,30.44,30.37,30.30,10,10,9,17,7,,0.00,0,,214
2013-1-5,41,34,28,37,32,25,100,86,75,30.28,30.21,30.10,10,10,5,21,13,26,0.00,6,Rain,220
2013-1-6,38,30,23,28,22,19,97,77,51,30.40,30.33,30.18,10,10,10,20,9,25,0.00,2,,280
2013-1-7,48,34,21,28,24,19,90,70,42,30.35,30.22,30.11,10,10,10,24,10,30,0.00,0,,191
2013-1-8,52,40,29,38,31,25,83,68,46,30.19,30.09,30.02,10,10,10,18,10,,0.00,3,,207
2013-1-9,53,40,28,38,33,28,100,77,51,30.43,30.37,30.22,10,10,9,8,5,,0.00,0,,117
2013-1-10,52,45,38,52,44,30,100,94,56,30.35,30.00,29.76,10,8,3,15,10,22,0.31,7,Rain,131
2013-1-11,62,55,48,52,49,45,100,87,59,29.79,29.73,29.62,10,10,6,24,15,31,0.01,6,,197
2013-1-12,56,40,23,47,26,18,100,80,38,30.07,30.00,29.74,10,8,1,18,13,26,0.08,7,Rain-Snow,345
2013-1-13,24,19,10,16,11,6,81,71,57,30.40,30.23,30.06,10,10,10,14,9,,0.00,1,,318
2013-1-14,26,16,7,10,8,5,94,71,46,30.54,30.47,30.43,10,10,10,8,2,,0.00,0,,51
2013-1-15,28,18,8,17,11,6,89,74,55,30.43,30.34,30.22,10,10,10,6,1,,0.00,3,,65
2013-1-16,40,26,11,26,18,8,90,71,48,30.22,30.13,30.05,10,10,10,21,8,,0.00,1,,228
2013-1-17,41,34,27,32,29,26,100,87,59,30.49,30.40,30.19,10,10,10,15,9,,0.00,2,,349
2013-1-18,53,40,27,33,30,26,96,68,45,30.46,30.26,30.08,10,10,10,29,15,36,0.00,0,,205
2013-1-19,59,50,40,36,33,29,75,58,36,30.23,30.06,29.99,10,10,10,22,17,29,0.00,0,,250
2013-1-20,39,30,21,29,15,10,71,57,44,30.40,30.34,30.25,10,10,10,16,11,22,0.00,2,,12
2013-1-21,22,18,14,11,5,-3,80,58,36,30.46,30.43,30.40,10,10,10,13,9,22,0.00,5,,337
2013-1-22,28,20,12,12,5,0,76,55,40,30.47,30.39,30.32,10,10,10,9,6,,0.00,3,,63
2013-1-23,46,30,14,23,16,8,82,62,39,30.43,30.28,30.19,10,10,10,14,5,,0.00,0,,18
2013-1-24,27,19,11,14,7,2,71,55,43,30.56,30.39,30.20,10,10,10,16,12,21,0.00,4,,77
2013-1-25,44,34,23,21,16,10,67,51,37,30.27,30.21,30.17,10,10,10,9,5,,0.00,3,,282
2013-1-26,51,39,27,27,25,21,79,62,39,30.34,30.25,30.16,10,10,10,9,4,,0.00,4,,107
2013-1-27,59,48,37,58,45,25,100,94,53,30.15,29.97,29.81,10,10,9,21,11,30,0.11,7,Rain,172
2013-1-28,73,64,55,64,59,55,100,87,59,29.89,29.83,29.72,10,10,10,31,11,34,0.01,6,Rain,187
2013-1-29,65,51,37,64,55,37,100,99,88,29.71,29.58,29.47,10,8,2,28,13,34,2.57,7,Rain-Thunderstorm,203
2013-1-30,37,30,24,37,29,16,100,93,70,30.01,29.65,29.44,10,8,1,23,13,31,0.01,8,Rain-Snow,306
2013-1-31,26,18,9,22,10,-1,87,67,50,30.52,30.21,29.99,10,10,10,22,10,30,0.00,4,,293